SPATO EPKK-EPWA

Flight info

Callsign SPATO
Flight time N/A
Altitude 10000
Route DCT EPKKZ DCT EPKKO DCT EPWAX DCT EPWAR DCT EPWAW DCT EPWA
Aircraft SR20/L-V/N

Departure

Time N/A
Airport Kraków John Paul II International Airport (EPKK)

Arrival

Time 2026-05-06 21:28
Airport Warsaw Chopin Airport (EPWA)
Time Latitude Longitude Altitude Speed Heading
2026-05-06 21:22 52.00912 21.10399 2211 ft 126 kts 330°
2026-05-06 21:23 52.01734 21.09804 2241 ft 132 kts 334°
2026-05-06 21:23 52.02611 21.09240 2262 ft 136 kts 333°
2026-05-06 21:23 52.03478 21.08616 2279 ft 139 kts 331°
2026-05-06 21:23 52.04365 21.07932 2306 ft 141 kts 335°
2026-05-06 21:24 52.05264 21.07304 2355 ft 140 kts 331°
2026-05-06 21:24 52.06143 21.06606 2381 ft 142 kts 332°
2026-05-06 21:24 52.07002 21.05858 2440 ft 140 kts 329°
2026-05-06 21:24 52.07812 21.05094 2312 ft 129 kts 324°
2026-05-06 21:25 52.08553 21.04336 2079 ft 121 kts 324°
2026-05-06 21:25 52.09245 21.03657 1823 ft 110 kts 326°
2026-05-06 21:25 52.09813 21.03124 1732 ft 90 kts 326°
2026-05-06 21:25 52.10381 21.02567 1665 ft 97 kts 324°
2026-05-06 21:26 52.10959 21.02009 1594 ft 105 kts 324°
2026-05-06 21:26 52.11564 21.01373 1531 ft 102 kts 324°
2026-05-06 21:26 52.12111 21.00814 1255 ft 96 kts 323°
2026-05-06 21:26 52.12620 21.00292 1063 ft 81 kts 329°
2026-05-06 21:27 52.13118 20.99850 960 ft 83 kts 328°
2026-05-06 21:27 52.13623 20.99357 818 ft 87 kts 327°
2026-05-06 21:27 52.14159 20.98854 748 ft 89 kts 329°
2026-05-06 21:27 52.14707 20.98355 586 ft 90 kts 332°
2026-05-06 21:28 52.15256 20.97874 445 ft 91 kts 332°
2026-05-06 21:28 52.15809 20.97385 344 ft 84 kts 332°
2026-05-06 21:28 52.16246 20.97016 332 ft 59 kts 333°
2026-05-06 21:28 52.16564 20.96734 327 ft 45 kts 332°
2026-05-06 21:29 52.16778 20.96557 325 ft 26 kts 345°
2026-05-06 21:29 52.16931 20.96514 327 ft 18 kts
2026-05-06 21:29 52.17041 20.96516 328 ft 13 kts
2026-05-06 21:29 52.17092 20.96592 327 ft 7 kts 91°
2026-05-06 21:30 52.17083 20.96656 327 ft 4 kts 113°
2026-05-06 21:30 52.17049 20.96699 326 ft 9 kts 153°
2026-05-06 21:30 52.17045 20.96780 326 ft 7 kts 92°
2026-05-06 21:30 52.17044 20.96881 327 ft 8 kts 70°
2026-05-06 21:31 52.17074 20.96960 329 ft 7 kts 62°
2026-05-06 21:31 52.17086 20.97012 331 ft 3 kts 79°
2026-05-06 21:31 52.17092 20.97048 332 ft 1 kts 75°
2026-05-06 21:31 52.17094 20.97068 333 ft 0 kts 81°
2026-05-06 21:32 52.17096 20.97081 333 ft 0 kts 77°